Preview of NWS' New Version of Forecast
This preview is not operational and should not be used for support decisions.

Regional Weather Roundup (RWR)

Issued by National Weather Service (NWS)

                            
000
ASUS44 KMEG 200410
RWRTN 
TENNESSEE HOURLY STATE WEATHER ROUNDUP
NATIONAL WEATHER SERVICE MEMPHIS TN
1100 PM CDT WED JUN 19 2019

TNZ002-004-019-021-049-052-054-088>092-200500-
WEST TENNESSEE
  
CITY           SKY/WX    TMP DP  RH WIND       PRES   REMARKS
MEMPHIS INTL   CLOUDY    83  71  67 S9        29.70R                  
NWS MEMPHIS      N/A    N/A N/A N/A MISG        N/A                   
JACKSON        FAIR      79  73  82 S10       29.70S                  
DYERSBURG      FAIR      78  69  73 CALM      29.68S                  
COVINGTON      CLOUDY    82  70  65 S5        29.68R                  
UNION CITY     MOCLDY    73  72  94 CALM      29.67R                  
BOLIVAR        CLEAR     79  72  78 S8        29.71R                  
PARIS          CLEAR     72  72 100 CALM      29.69R                  
HUNTINGDON     CLEAR     73  73 100 S3        29.68S                  
LEXINGTON      CLEAR     79  72  78 SW9       29.70R                  
SELMER         MOCLDY    79  73  83 VRB6      29.72R                  
SAVANNAH       CLOUDY    81  73  78 SW10G17   29.72R                  
$$

TNZ008-025-027-028-033-062-065-066-200500-
NORTH MIDDLE TENNESSEE
  
CITY           SKY/WX    TMP DP  RH WIND       PRES   REMARKS
NASHVILLE      CLOUDY    71  67  87 S5        29.73S                  
DICKSON        MOCLDY    70  70 100 CALM      29.71R                  
PORTLAND       CLOUDY    68  68 100 S9        29.71S                  
CLARKSVILLE    FAIR      70  68  93 CALM      29.71R                  
LEBANON        PTCLDY    70  66  88 S3        29.70F                  
SMYRNA         LGT RAIN  69  68  96 S5        29.74S                  
MURFREESBORO   MOCLDY    70  68  94 S6        29.71F                  
COOKEVILLE     MOCLDY    68  66  94 SE6       29.76F                  
LIVINGSTON     MOCLDY    66  64  94 S6        29.77S                  
GALLATIN       MOCLDY    70  70 100 CALM      29.75R                  
CROSSVILLE     LGT RAIN  65  63  93 CALM      29.82F                  
ROCKWOOD       MOCLDY    70  66  88 W9G20     29.80S HAZE             
$$

TNZ061-075-076-078-094-096-097-200500-
SOUTH MIDDLE TENNESSEE
  
CITY           SKY/WX    TMP DP  RH WIND       PRES   REMARKS
LAWRENCEBURG   PTCLDY    77  70  78 VRB3      29.75R                  
LEWISBURG      MOCLDY    72  70  94 CALM      29.73S                  
FAYETTEVILLE   CLEAR     79  70  73 S6        29.76S                  
TULLAHOMA      MOCLDY    75  68  78 E5        29.76S                  
WINCHESTER     CLEAR     77  68  73 SW9       29.77S                  
MCMINNVILLE    MOCLDY    68  66  94 CALM      29.76R                  
COLUMBIA       CLEAR     77  73  88 SW12      29.71R                  
SHELBYVILLE    MOCLDY    72  68  88 S7        29.75F                  
$$

TNZ017-018-042-046-047-200500-
NORTHEAST TENNESSEE
  
CITY           SKY/WX    TMP DP  RH WIND       PRES   REMARKS
TRI CITIES     FAIR      70  67  90 CALM      29.80S                  
ELIZABETHTON   MOCLDY    68  66  94 CALM      29.80S                  
GREENEVILLE    MOCLDY    72  68  88 CALM      29.79F                  
$$

TNZ012-013-036-069-073-074-200500-
CENTRAL EAST TENNESSEE
  
CITY           SKY/WX    TMP DP  RH WIND       PRES   REMARKS
KNOXVILLE      CLOUDY    76  68  76 SW9       29.76R                  
OAK RIDGE      MOCLDY    74  71  91 CALM      29.77S                  
DOWNTOWN KNOXV PTCLDY    72  72 100 CALM      29.76S FOG              
GATLINBURG     CLEAR     72  70  94 CALM      29.77R                  
MORRISTOWN     MOCLDY    68  68 100 CALM      29.78S                  
JACKSBORO      MOCLDY    70  70 100 CALM      29.80S                  
$$

TNZ083-085-099-200500-
SOUTHEAST TENNESSEE
  
CITY           SKY/WX    TMP DP  RH WIND       PRES   REMARKS
CHATTANOOGA    FAIR      79  72  79 S5        29.78R                  
$$

SKY/WX REPORTED AS FAIR MEANS FEW OR NO CLOUDS BELOW
12 THOUSAND FEET.